COSMOS 2221

Last updated on Sun Jun 21 2026 00:02:15 GMT+0000 (Coordinated Universal Time)

1 22236U 92080A 26171.01411493 .00001046 00000+0 89564-4 0 9990 2 22236 82.5028 181.0561 0013519 202.2400 157.8237 14.96539106796091
UTC large
Height (km)
Speed (km/s)
/
Latitude / Longitude
Inclination (degrees)
Orbital Period (minutes)
Azimuth
Elevation
Range (km)
Doppler Factor

Next 0 passes for location: London (51.5072 / 0.1276)

No passes found over London.
COSMOS 2221